Wichita Falls, TX

4:19 AM CDT on July 25, 2017 (GMT -0500)
Sheppard Air Force Base-Wichita Falls Municipal

Weather History for KSPS - March, 2014

Change the Weather History Date:

Saturday, March 1, 2014

  Actual Average Record
Temperature  
Mean Temperature 45 °F 50 °F  
Max Temperature 62 °F 62 °F 98 °F (2006)
Min Temperature 27 °F 37 °F 12 °F (1980)
Degree Days  
Heating Degree Days 20 16  
Month to date heating degree days 20 16  
Since 1 July heating degree days 2790 2462  
Moisture  
Dew Point 43 °F    
Average Humidity 78    
Maximum Humidity 100    
Minimum Humidity 56    
Precipitation  
Precipitation 0.01 in 0.08 in 3.60 in (1988)
Month to date precipitation 0.01 0.08  
Year to date precipitation 0.36 2.97  
Snow  
Snow 0.00 in 0.00 in - ()
Month to date snowfall 0.0  
Since 1 July snowfall 5.0 3.4  
Snow Depth 0.00 in    
Sea Level Pressure  
Sea Level Pressure 29.94 in    
Wind  
Wind Speed 14 mph (NE)    
Max Wind Speed 31 mph    
Max Gust Speed 38 mph    
Visibility 6 miles    
Events      
T = Trace of Precipitation, MM = Missing Value Source: NWS Daily Summary

Daily Weather History Graph

Daily Weather History Graph

Search for Another Location

Airport or City:

Trip Planner

Search our weather history database for the weather conditions in past years. The results will help you decide how hot, cold, wet, or windy it might be!

Date:

Astronomy

Mar. 01, 2014 Rise Set
Actual Time 7:02 AM CST 6:30 PM CST
Civil Twilight 6:37 AM CST 6:55 PM CST
Nautical Twilight 6:08 AM CST 7:24 PM CST
Astronomical Twilight 5:39 AM CST 7:53 PM CST
Moon 6:59 AM CST (3/1) 7:15 PM CST (3/1)
Length of Visible Light 12h 18m
Length of Day
11h 27m
New Moon, 0% of the Moon is Illuminated
Mar 1
New Moon
Mar 8
First Quarter
Mar 16
Full
Mar 23
Last Quarter
Mar 30
New

Hourly Weather History & Observations

Time (CST) Temp. Windchill Dew Point Humidity Pressure Visibility Wind Dir Wind Speed Gust Speed Precip Events Conditions
12:52 AM 46.0 °F 41.0 °F 41.0 °F 83% 29.83 in 9.0 mi ENE 10.4 mph - N/A   Clear
1:52 AM 44.1 °F 38.1 °F 42.1 °F 93% 29.84 in 5.0 mi NE 11.5 mph - N/A   Partly Cloudy
2:03 AM 44.6 °F 38.8 °F 42.8 °F 93% 29.85 in 5.0 mi ENE 11.5 mph - N/A   Mostly Cloudy
2:11 AM 44.6 °F 38.8 °F 42.8 °F 93% 29.86 in 4.0 mi ENE 11.5 mph - N/A   Mostly Cloudy
2:25 AM 46.4 °F 41.1 °F 44.6 °F 93% 29.87 in 2.0 mi ENE 11.5 mph - N/A   Overcast
2:52 AM 46.9 °F - 45.0 °F 93% 29.85 in 2.0 mi ENE 10.4 mph - N/A   Overcast
3:09 AM 46.4 °F 40.7 °F 46.4 °F 100% 29.87 in 1.5 mi East 12.7 mph - N/A   Overcast
3:52 AM 46.9 °F - 46.9 °F 100% 29.86 in 1.2 mi East 11.5 mph - N/A   Overcast
4:44 AM 48.2 °F - 46.4 °F 93% 29.90 in 2.5 mi ESE 12.7 mph - N/A   Overcast
4:52 AM 48.0 °F - 46.9 °F 96% 29.88 in 2.5 mi East 10.4 mph - N/A   Overcast
5:52 AM 48.0 °F - 46.9 °F 96% 29.91 in 2.5 mi ENE 12.7 mph - N/A   Overcast
6:16 AM 46.4 °F 40.7 °F 46.4 °F 100% 29.93 in 1.2 mi NE 12.7 mph - N/A   Overcast
6:50 AM 46.4 °F 40.1 °F 46.4 °F 100% 29.93 in 2.0 mi NE 15.0 mph - N/A   Overcast
6:52 AM 46.9 °F - 46.9 °F 100% 29.92 in 2.5 mi NE 13.8 mph - N/A   Overcast
7:05 AM 46.4 °F 40.1 °F 46.4 °F 100% 29.93 in 3.0 mi ENE 15.0 mph - N/A   Overcast
7:25 AM 46.4 °F 41.1 °F 46.4 °F 100% 29.95 in 2.5 mi ENE 11.5 mph - N/A   Overcast
7:37 AM 46.4 °F 40.7 °F 46.4 °F 100% 29.95 in 4.0 mi ENE 12.7 mph - N/A   Overcast
7:44 AM 46.4 °F 41.5 °F 46.4 °F 100% 29.95 in 5.0 mi ENE 10.4 mph - N/A   Overcast
7:52 AM 46.9 °F - 46.0 °F 97% 29.96 in 5.0 mi East 9.2 mph - N/A   Overcast
8:52 AM 48.0 °F - 46.9 °F 96% 29.99 in 7.0 mi East 8.1 mph - N/A   Overcast
9:52 AM 48.9 °F - 46.0 °F 90% 29.99 in 7.0 mi ENE 9.2 mph - N/A   Overcast
10:52 AM 50.0 °F - 46.0 °F 86% 29.99 in 9.0 mi ESE 9.2 mph - N/A   Overcast
11:52 AM 51.1 °F - 46.0 °F 83% 29.97 in 9.0 mi East 5.8 mph - N/A   Overcast
12:37 PM 53.6 °F - 46.4 °F 77% 29.98 in 10.0 mi NNE 3.5 mph - N/A   Overcast
12:52 PM 53.1 °F - 46.9 °F 80% 29.96 in 10.0 mi NE 3.5 mph - N/A   Overcast
1:52 PM 52.0 °F - 46.9 °F 83% 29.91 in 10.0 mi NE 9.2 mph - N/A   Mostly Cloudy
1:59 PM 51.8 °F - 46.4 °F 82% 29.91 in 10.0 mi NE 8.1 mph - N/A   Mostly Cloudy
2:52 PM 60.1 °F - 46.9 °F 62% 29.90 in 10.0 mi East 5.8 mph 17.3 mph N/A   Mostly Cloudy
3:52 PM 62.1 °F - 46.9 °F 58% 29.89 in 10.0 mi NE 11.5 mph 17.3 mph N/A   Mostly Cloudy
4:52 PM 55.0 °F - 46.0 °F 72% 29.89 in 10.0 mi North 19.6 mph - N/A   Mostly Cloudy
5:52 PM 46.9 °F - 41.0 °F 80% 29.90 in 8.0 mi NNE 20.7 mph - N/A   Partly Cloudy
6:04 PM 46.4 °F 38.5 °F 41.0 °F 81% 29.91 in 8.0 mi North 21.9 mph 28.8 mph N/A   Mostly Cloudy
6:52 PM 43.0 °F 33.3 °F 39.0 °F 86% 29.94 in 7.0 mi North 25.3 mph 31.1 mph N/A   Overcast
7:52 PM 41.0 °F 31.9 °F 37.0 °F 86% 29.98 in 6.0 mi North 19.6 mph - N/A   Overcast
8:52 PM 37.9 °F 26.8 °F 34.0 °F 86% 30.02 in 8.0 mi NNE 24.2 mph - 0.01 in   Overcast
9:52 PM 34.0 °F 21.0 °F 30.9 °F 89% 30.05 in 10.0 mi North 26.5 mph 33.4 mph N/A   Overcast
10:52 PM 32.0 °F 18.1 °F 28.9 °F 88% 30.08 in 8.0 mi North 27.6 mph 34.5 mph N/A   Overcast
11:52 PM 28.0 °F 12.5 °F 25.0 °F 88% 30.10 in 6.0 mi North 28.8 mph - N/A   Overcast